• In United Kingdom
  • List of Countries
  • For 7 days
  • Water Temperature
  • Satellite Maps
  • Weather Map
  • Weather Widgets
  • user-avatar
    Login

    Hourly Weather Tibissa

    Today, 24 November, Friday

    Time Temperature Precipitation Wind Pressure Humidity
    00:00 +11°C° 0 mm 1 mps 687 mmHg 62%
    01:00 +10°C° 0 mm 1 mps 687 mmHg 62%
    02:00 +10°C° 0 mm 1 mps 687 mmHg 61%
    03:00 +9°C° 0 mm 1 mps 687 mmHg 60%
    04:00 +9°C° 0 mm 1 mps 687 mmHg 59%
    05:00 +9°C° 0 mm 1 mps 687 mmHg 59%
    06:00 +8°C° 0 mm 1 mps 687 mmHg 58%
    07:00 +8°C° 0 mm 1 mps 688 mmHg 56%
    08:00 +9°C° 0 mm 2 mps 688 mmHg 49%
    09:00 +10°C° 0 mm 2 mps 689 mmHg 42%
    10:00 +13°C° 0 mm 2 mps 689 mmHg 35%
    11:00 +14°C° 0 mm 2 mps 689 mmHg 32%
    12:00 +15°C° 0 mm 2 mps 689 mmHg 28%
    13:00 +16°C° 0 mm 1 mps 689 mmHg 25%
    14:00 +16°C° 0 mm 1 mps 689 mmHg 24%
    15:00 +16°C° 0 mm 1 mps 689 mmHg 24%
    16:00 +16°C° 0 mm 1 mps 689 mmHg 23%
    17:00 +15°C° 0 mm 1 mps 689 mmHg 29%
    18:00 +13°C° 0 mm 1 mps 688 mmHg 34%
    19:00 +11°C° 0 mm 0 mps 688 mmHg 39%
    20:00 +10°C° 0 mm 0 mps 688 mmHg 40%
    21:00 +10°C° 0 mm 0 mps 688 mmHg 41%
    22:00 +9°C° 0 mm 0 mps 688 mmHg 42%
    23:00 +10°C° 0 mm 1 mps 688 mmHg 41%

    Tomorrow, 25 November, Saturday

    Time Temperature Precipitation Wind Pressure Humidity
    00:00 +10°C° 0 mm 1 mps 688 mmHg 41%
    01:00 +10°C° 0 mm 1 mps 688 mmHg 40%
    02:00 +10°C° 0 mm 1 mps 688 mmHg 40%
    03:00 +9°C° 0 mm 1 mps 688 mmHg 39%
    04:00 +8°C° 0 mm 2 mps 687 mmHg 38%
    05:00 +8°C° 0 mm 2 mps 687 mmHg 38%
    06:00 +8°C° 0 mm 2 mps 687 mmHg 37%
    07:00 +8°C° 0 mm 2 mps 687 mmHg 37%
    08:00 +10°C° 0 mm 2 mps 688 mmHg 33%
    09:00 +13°C° 0 mm 2 mps 689 mmHg 29%
    10:00 +15°C° 0 mm 2 mps 689 mmHg 26%
    11:00 +16°C° 0 mm 3 mps 689 mmHg 23%
    12:00 +17°C° 0 mm 3 mps 689 mmHg 21%
    13:00 +18°C° 0 mm 3 mps 689 mmHg 18%
    14:00 +18°C° 0 mm 3 mps 689 mmHg 20%
    15:00 +18°C° 0 mm 3 mps 688 mmHg 21%
    16:00 +18°C° 0 mm 3 mps 688 mmHg 22%
    17:00 +17°C° 0 mm 3 mps 688 mmHg 26%
    18:00 +15°C° 0 mm 2 mps 688 mmHg 30%
    19:00 +13°C° 0 mm 2 mps 687 mmHg 34%
    20:00 +13°C° 0 mm 2 mps 688 mmHg 35%
    21:00 +13°C° 0 mm 2 mps 688 mmHg 35%
    22:00 +12°C° 0 mm 1 mps 688 mmHg 36%
    23:00 +12°C° 0 mm 1 mps 688 mmHg 37%

    Day after tomorrow, 26 November, Sunday

    Time Temperature Precipitation Wind Pressure Humidity
    00:00 +12°C° 0 mm 1 mps 688 mmHg 37%
    01:00 +11°C° 0 mm 1 mps 687 mmHg 38%
    02:00 +11°C° 0 mm 1 mps 687 mmHg 39%
    03:00 +10°C° 0 mm 1 mps 687 mmHg 39%
    04:00 +10°C° 0 mm 1 mps 687 mmHg 40%
    05:00 +10°C° 0 mm 1 mps 687 mmHg 40%
    06:00 +10°C° 0 mm 1 mps 687 mmHg 40%
    07:00 +9°C° 0 mm 1 mps 687 mmHg 40%
    08:00 +11°C° 0 mm 1 mps 688 mmHg 36%
    09:00 +13°C° 0 mm 1 mps 689 mmHg 32%
    10:00 +15°C° 0 mm 1 mps 689 mmHg 28%
    11:00 +16°C° 0 mm 2 mps 689 mmHg 28%
    12:00 +16°C° 0 mm 2 mps 689 mmHg 27%
    13:00 +17°C° 0 mm 2 mps 689 mmHg 27%
    14:00 +16°C° 0 mm 3 mps 689 mmHg 31%
    15:00 +16°C° 0 mm 3 mps 689 mmHg 35%
    16:00 +14°C° 0 mm 3 mps 688 mmHg 39%
    17:00 +13°C° 0 mm 3 mps 689 mmHg 44%
    18:00 +12°C° 0 mm 3 mps 689 mmHg 50%
    19:00 +11°C° 0 mm 3 mps 689 mmHg 55%
    20:00 +10°C° 0 mm 4 mps 689 mmHg 64%
    21:00 +9°C° 0 mm 5 mps 690 mmHg 73%
    22:00 +8°C° 0 mm 5 mps 690 mmHg 82%
    23:00 +8°C° 0 mm 6 mps 690 mmHg 80%

    27 November, Monday

    Time Temperature Precipitation Wind Pressure Humidity
    00:00 +7°C° 0 mm 6 mps 690 mmHg 79%
    01:00 +7°C° 0 mm 6 mps 690 mmHg 78%
    02:00 +5°C° 0 mm 7 mps 690 mmHg 78%
    03:00 +5°C° 0 mm 7 mps 690 mmHg 77%
    04:00 +5°C° 0 mm 7 mps 689 mmHg 77%
    05:00 +4°C° 0 mm 7 mps 690 mmHg 77%
    06:00 +4°C° 0 mm 7 mps 690 mmHg 78%
    07:00 +3°C° 0 mm 7 mps 690 mmHg 78%
    08:00 +4°C° 0 mm 7 mps 690 mmHg 74%
    09:00 +5°C° 0 mm 7 mps 691 mmHg 70%
    10:00 +5°C° 0 mm 8 mps 691 mmHg 66%
    11:00 +6°C° 0 mm 7 mps 691 mmHg 64%
    12:00 +6°C° 0 mm 7 mps 690 mmHg 61%
    13:00 +8°C° 0 mm 7 mps 690 mmHg 59%
    14:00 +6°C° 0 mm 7 mps 690 mmHg 59%
    15:00 +6°C° 0 mm 7 mps 690 mmHg 59%
    16:00 +7°C° 0 mm 6 mps 690 mmHg 59%
    17:00 +7°C° 0 mm 5 mps 690 mmHg 63%
    18:00 +6°C° 0 mm 4 mps 689 mmHg 67%
    19:00 +5°C° 0 mm 3 mps 689 mmHg 71%
    20:00 +5°C° 0 mm 3 mps 689 mmHg 74%
    21:00 +4°C° 0 mm 3 mps 690 mmHg 76%
    22:00 +5°C° 0 mm 2 mps 690 mmHg 78%
    23:00 +5°C° 0 mm 2 mps 689 mmHg 78%

    28 November, Tuesday

    Time Temperature Precipitation Wind Pressure Humidity
    00:00 +4°C° 0 mm 2 mps 689 mmHg 79%
    01:00 +4°C° 0 mm 2 mps 689 mmHg 79%
    02:00 +5°C° 0 mm 1 mps 688 mmHg 79%
    03:00 +5°C° 0 mm 1 mps 688 mmHg 79%
    04:00 +5°C° 0 mm 1 mps 688 mmHg 79%
    05:00 +4°C° 0 mm 1 mps 688 mmHg 80%
    06:00 +4°C° 0 mm 1 mps 688 mmHg 80%
    07:00 +4°C° 0 mm 1 mps 688 mmHg 81%
    08:00 +5°C° 0 mm 2 mps 688 mmHg 75%
    09:00 +6°C° 0 mm 2 mps 688 mmHg 69%
    10:00 +8°C° 0 mm 2 mps 688 mmHg 64%
    11:00 +9°C° 0 mm 3 mps 688 mmHg 58%
    12:00 +10°C° 0 mm 4 mps 688 mmHg 52%
    13:00 +12°C° 0 mm 4 mps 687 mmHg 46%
    14:00 +12°C° 0 mm 4 mps 687 mmHg 47%
    15:00 +12°C° 0 mm 4 mps 686 mmHg 48%
    16:00 +12°C° 0 mm 4 mps 686 mmHg 49%
    17:00 +11°C° 0 mm 4 mps 686 mmHg 54%
    18:00 +9°C° 0 mm 3 mps 685 mmHg 60%
    19:00 +8°C° 0 mm 3 mps 685 mmHg 65%
    20:00 +8°C° 0 mm 3 mps 685 mmHg 67%
    21:00 +8°C° 0 mm 3 mps 685 mmHg 69%
    22:00 +7°C° 0 mm 3 mps 685 mmHg 71%
    23:00 +7°C° 0 mm 3 mps 684 mmHg 72%

    29 November, Wednesday

    Time Temperature Precipitation Wind Pressure Humidity
    00:00 +7°C° 0 mm 3 mps 684 mmHg 73%
    01:00 +6°C° 0 mm 4 mps 684 mmHg 74%
    02:00 +6°C° 0 mm 4 mps 683 mmHg 75%
    03:00 +6°C° 0 mm 4 mps 683 mmHg 75%
    04:00 +6°C° 0 mm 4 mps 683 mmHg 76%
    05:00 +6°C° 0 mm 4 mps 682 mmHg 76%
    06:00 +6°C° 0 mm 4 mps 682 mmHg 76%
    07:00 +6°C° 0 mm 4 mps 682 mmHg 76%
    08:00 +8°C° 0 mm 5 mps 682 mmHg 69%
    09:00 +9°C° 0 mm 5 mps 683 mmHg 62%
    10:00 +11°C° 0 mm 6 mps 683 mmHg 54%
    11:00 +14°C° 0 mm 7 mps 683 mmHg 49%
    12:00 +16°C° 0 mm 8 mps 682 mmHg 43%
    13:00 +18°C° 0 mm 9 mps 682 mmHg 38%
    14:00 +17°C° 0 mm 9 mps 682 mmHg 39%
    15:00 +17°C° 0 mm 9 mps 681 mmHg 40%
    16:00 +16°C° 0 mm 8 mps 681 mmHg 41%
    17:00 +15°C° 0 mm 7 mps 681 mmHg 45%
    18:00 +13°C° 0 mm 6 mps 680 mmHg 49%
    19:00 +10°C° 0 mm 5 mps 680 mmHg 53%
    20:00 +10°C° 0 mm 5 mps 680 mmHg 51%
    21:00 +10°C° 0 mm 6 mps 680 mmHg 50%
    22:00 +10°C° 0 mm 6 mps 681 mmHg 49%
    23:00 +10°C° 0 mm 6 mps 680 mmHg 49%
    Show more